[[{"header":{"parameterUnit":"m.s-1","parameterCategory":1,"la1":30.2991,"la2":30.254,"lo1":-89.0895,"lo2":-89.0444,"dy":0.0017,"dx":0.0017,"nx":28,"ny":28,"refTime":"2023-07-30T03:00:00:Z","depth":0,"parameterNumber":2,"parameterNumberName":"U-component_of_WINDS"},"data":[0,0,0,0,0,0,0,0,0,0,0,0,0,0,0,0,0,0,0,0,0,0,0,0,0,0,0,0,0,0,0,0,0,0,0,0,0,0,0,0,0,0,0,0,0,0,0,0,0,0,0,0,0,0,0,0,0,0,1.8964,1.8966,0,1.9138,1.914,1.9142,1.9187,1.9186,1.9185,1.9184,1.9362,1.9368,1.9373,0,0,0,0,0,0,0,0,0,0,0,0,0,1.8672,1.8677,1.8964,1.8966,1.8968,1.9137,1.914,1.9142,1.9187,1.9186,1.9184,1.9183,1.936,1.9367,1.9374,0,0,0,0,0,0,0,0,0,0,0,0,0,1.8817,1.8679,1.8963,1.9011,1.9017,1.9137,1.914,1.9143,1.9187,1.9186,1.9184,1.9183,1.9358,1.9366,1.9375,1.946,0,0,1.9401,1.9405,0,0,0,0,0,0,0,0,1.8809,1.8828,1.9002,1.9008,1.9015,1.9139,1.9102,1.9249,1.9188,1.9123,1.9184,1.9182,1.9289,1.9303,1.9339,1.9468,1.9476,1.9402,1.9407,1.9411,1.9413,0,0,0,0,0,0,0,1.8799,1.8821,1.9033,1.9004,1.9012,1.9024,1.9043,1.913,1.9213,1.9128,1.9132,1.9152,1.9292,1.9331,1.9344,1.9479,1.9402,1.9409,1.9415,1.9418,1.9687,1.9689,0,0,0,0,0,0,1.878,1.8812,1.9027,1.9038,1.8906,1.903,1.9052,1.9101,1.9212,1.9227,1.9153,1.9153,1.9317,1.9334,1.935,1.9458,1.9411,1.9419,1.9424,1.9685,1.9688,1.969,0,0,0,0,0,0,1.8774,1.8799,1.902,1.8926,1.8955,1.9037,1.9092,1.9105,1.9144,1.9231,1.9246,1.9177,1.9316,1.9338,1.9433,1.9465,1.9423,1.9431,1.9683,1.9686,1.9689,1.9673,0,0,0,0,0,0,1.8765,1.8797,1.883,1.8926,1.896,1.9099,1.9094,1.911,1.9158,1.916,1.9257,1.9272,1.9317,1.9419,1.9441,1.9476,1.9437,1.968,1.9684,1.9688,1.9671,1.9675,1.9679,0,0,0,0,0,1.8755,1.8818,1.8831,1.8857,1.9003,1.9101,1.912,1.917,1.9161,1.9195,1.9251,1.9269,1.9458,1.9429,1.9454,1.9491,1.9679,1.9683,1.9687,1.967,1.9675,1.9679,0,0,0,0,0,0,1.8723,1.8832,1.8847,1.8944,1.9013,1.9108,1.9153,1.9174,1.9247,1.9246,1.9305,1.9327,1.9417,1.9464,1.943,1.958,1.9568,1.9578,1.9546,1.9552,1.9555,1.9542,1.9444,0,0,0,0,0,1.8727,1.8797,1.8889,1.8965,1.8999,1.907,1.9114,1.9147,1.9221,1.925,1.9313,1.9384,1.946,1.9509,1.9583,1.9678,1.9701,1.9717,1.972,1.9723,1.9731,1.9786,1.9794,1.9704,1.9704,1.9704,0,0,1.8736,1.8805,1.8845,1.8961,1.9018,1.909,1.9094,1.917,1.9224,1.9262,1.9355,1.9404,1.9487,1.9582,1.9628,1.9624,1.9761,1.9729,1.973,1.9737,1.9791,1.9799,1.9807,1.9707,1.9707,1.9706,0,0,1.879,1.8849,1.8919,1.8977,1.9063,1.911,1.9127,1.922,1.9254,1.9348,1.9378,1.9444,1.9572,1.9631,1.9677,1.9754,1.9773,1.9776,1.9796,1.9849,1.9856,1.9862,1.989,1.9899,1.9784,1.9784,1.9784,0,1.8791,1.89,1.8953,1.9027,1.9077,1.9115,1.9187,1.9241,1.9347,1.9381,1.9375,1.9538,1.9597,1.9707,1.9726,1.9762,1.9783,1.9765,1.9851,1.9858,1.9865,1.9892,1.9902,1.9783,1.9783,1.9783,1.9783,0,1.8897,1.8972,1.9019,1.9121,1.9176,1.9249,1.9313,1.9362,1.9391,1.9438,1.9534,1.9606,1.9696,1.9724,1.9752,1.9839,1.9834,1.9839,1.9828,1.9872,1.9899,1.9909,1.9783,1.9783,1.9783,1.9783,0,0,1.8935,1.9066,1.9082,1.9129,1.9228,1.9287,1.9362,1.945,1.9492,1.9564,1.9628,1.9737,1.9742,1.9795,1.983,1.9876,1.9933,1.9876,1.9879,1.9884,2.0033,2.0029,2.004,1.9947,1.9949,1.9951,2.0026,0,1.9001,1.9136,1.9186,1.9297,1.9367,1.9405,1.947,1.9538,1.9585,1.9651,1.9703,1.9779,1.978,1.9812,1.986,1.9916,1.9964,1.9911,2.0008,2.0011,1.9986,2.0054,2.005,2.0118,2.0037,2.0039,2.004,0,1.9096,1.917,1.9288,1.9379,1.941,1.9468,1.9553,1.9616,1.9694,1.9725,1.9784,1.9816,1.9897,1.9881,1.9993,1.9956,1.9998,2.0032,2.0036,2.0047,2.0028,2.0067,2.014,2.015,2.0057,2.0056,2.0054,0,1.9112,1.9241,1.9328,1.9368,1.9476,1.9515,1.9562,1.9639,1.9689,1.9763,1.9796,1.9879,1.9924,1.9988,2.0042,2.0025,2.0149,2.0137,2.0177,2.0175,2.0201,2.0199,2.0282,2.0228,2.0228,2.0228,2.0227,0,1.9181,1.9252,1.9337,1.9391,1.9471,1.9528,1.9606,1.9656,1.9724,1.9788,1.9826,1.9885,1.9953,2.0022,2.0064,2.0151,2.0171,2.0198,2.0209,2.0195,2.0192,2.0224,2.0221,2.023,2.023,2.0229,2.0229,0,1.9213,1.9273,1.937,1.9465,1.9491,1.9546,1.9627,1.9681,1.9729,1.981,1.9832,1.9908,1.9991,2.0051,2.0158,2.0187,2.028,2.029,2.0253,2.0258,2.0295,2.029,2.0402,2.042,2.0353,2.0353,2.0354,0,1.9252,1.9308,1.9409,1.9454,1.9501,1.9574,1.9626,1.9684,1.9736,1.9829,1.9872,1.9957,2.0029,2.0159,2.0224,2.0306,2.0319,2.0353,2.0332,2.0316,2.032,2.0316,2.0323,2.0356,2.0356,2.0356,2.0357,0,1.9317,1.9344,1.9417,1.95,1.956,1.9628,1.9697,1.9732,1.9803,1.986,1.9945,2.0,2.0109,2.0194,2.0282,2.0331,2.0356,2.0363,2.0376,2.0363,2.0339,2.0353,2.0261,2.036,2.036,2.0359,2.0359,2.0359,1.9355,1.9406,1.9485,1.9564,1.9622,1.9686,1.9741,1.9797,1.9869,1.9962,1.9993,2.0081,2.0158,2.028,2.033,2.04,2.0399,2.0419,2.0424,2.0428,2.0427,2.0328,2.0416,2.0416,2.0416,2.0416,2.0416,0,1.9421,1.9474,1.9547,1.9642,1.9705,1.9723,1.98,1.9852,1.9929,1.9999,2.0069,2.0167,2.0249,2.0321,2.0406,2.0449,2.0462,2.0469,2.0467,2.0478,2.0423,2.0403,2.0457,2.0457,2.0457,2.0457,2.0457,2.0457,1.9463,1.9551,1.9588,1.9705,1.9758,1.9844,1.9887,1.9946,2.0003,2.0111,2.0179,2.0225,2.0297,2.0388,2.0465,2.0484,2.0514,2.0518,2.0539,2.0487,2.0482,2.0477,2.0459,2.0524,2.0524,2.0589,2.059,2.059]},{"header":{"parameterUnit":"m.s-1","parameterCategory":1,"la1":30.2991,"la2":30.254,"lo1":-89.0895,"lo2":-89.0444,"dy":0.0017,"dx":0.0017,"nx":28,"ny":28,"refTime":"2023-07-30T03:00:00:Z","depth":0,"parameterNumber":3,"parameterNumberName":"V-component_of_WINDS"},"data":[0,0,0,0,0,0,0,0,0,0,0,0,0,0,0,0,0,0,0,0,0,0,0,0,0,0,0,0,0,0,0,0,0,0,0,0,0,0,0,0,0,0,0,0,0,0,0,0,0,0,0,0,0,0,0,0,0,0,5.0966,5.0966,0,5.1031,5.1031,5.1032,5.0975,5.0973,5.0971,5.0969,5.1027,5.1031,5.1035,0,0,0,0,0,0,0,0,0,0,0,0,0,5.0784,5.0788,5.0966,5.0966,5.0967,5.1031,5.1031,5.1032,5.0976,5.0973,5.097,5.0968,5.1026,5.1031,5.1035,0,0,0,0,0,0,0,0,0,0,0,0,0,5.0857,5.0789,5.0965,5.0947,5.0946,5.103,5.1031,5.1032,5.0976,5.0973,5.097,5.0966,5.1025,5.103,5.1036,5.1139,0,0,5.1053,5.1055,0,0,0,0,0,0,0,0,5.0853,5.0864,5.0949,5.0948,5.0947,5.0992,5.0989,5.1068,5.0977,5.0965,5.0969,5.0965,5.1018,5.1024,5.1043,5.1142,5.1144,5.1053,5.1056,5.1059,5.106,0,0,0,0,0,0,0,5.0848,5.0861,5.0991,5.095,5.0949,5.0933,5.0939,5.1004,5.1009,5.0965,5.0962,5.097,5.1017,5.1038,5.1044,5.1145,5.1053,5.1058,5.1061,5.1063,5.1332,5.1336,0,0,0,0,0,0,5.0846,5.0857,5.0989,5.0993,5.0891,5.0939,5.0946,5.0981,5.1009,5.101,5.0973,5.0968,5.103,5.1038,5.1046,5.117,5.1059,5.1064,5.1067,5.1328,5.1333,5.1337,0,0,0,0,0,0,5.0843,5.0859,5.0986,5.0924,5.0939,5.0946,5.0985,5.0984,5.1005,5.1015,5.1015,5.0995,5.1028,5.1038,5.1117,5.1171,5.1067,5.1072,5.1324,5.133,5.1335,5.1418,0,0,0,0,0,0,5.0838,5.0858,5.0899,5.0926,5.0943,5.1059,5.0988,5.0988,5.1016,5.1009,5.1035,5.1036,5.1026,5.1109,5.1123,5.1177,5.1076,5.1319,5.1326,5.1333,5.141,5.1426,5.1439,0,0,0,0,0,5.0831,5.0918,5.0902,5.0918,5.0995,5.1062,5.1072,5.1061,5.1021,5.1061,5.1067,5.1035,5.1163,5.1118,5.1132,5.1189,5.1316,5.1324,5.1333,5.1404,5.1423,5.1439,0,0,0,0,0,0,5.0894,5.0921,5.0903,5.1001,5.1031,5.1053,5.1103,5.1081,5.112,5.1111,5.1094,5.11,5.1184,5.1194,5.1143,5.1291,5.1232,5.1244,5.1281,5.1299,5.1313,5.1309,5.1081,0,0,0,0,0,5.092,5.0976,5.0994,5.1079,5.1095,5.1097,5.1126,5.1115,5.1143,5.1154,5.1166,5.1193,5.1238,5.1269,5.1312,5.1411,5.1416,5.1457,5.1471,5.1483,5.1494,5.1547,5.1566,5.1365,5.1365,5.1365,0,0,5.0973,5.0995,5.103,5.1092,5.1114,5.1169,5.1107,5.1168,5.1208,5.1162,5.1239,5.1249,5.1276,5.1366,5.1406,5.1377,5.155,5.1494,5.1503,5.1508,5.1558,5.1577,5.1594,5.1371,5.137,5.1369,0,0,5.1099,5.1121,5.1194,5.1217,5.1251,5.1252,5.127,5.1296,5.1302,5.1378,5.1345,5.1391,5.1471,5.1493,5.1514,5.1648,5.162,5.1662,5.1737,5.1789,5.1805,5.1819,5.1867,5.1884,5.1672,5.1673,5.1673,0,5.1159,5.1245,5.1234,5.1298,5.1326,5.129,5.1363,5.1385,5.143,5.1449,5.1416,5.1517,5.1532,5.1627,5.166,5.1678,5.1697,5.166,5.1804,5.1818,5.183,5.1876,5.1894,5.1678,5.1677,5.1677,5.1676,0,5.1318,5.1377,5.1432,5.148,5.1514,5.1582,5.158,5.1614,5.1601,5.1604,5.1682,5.17,5.1747,5.1768,5.1754,5.1861,5.1842,5.1807,5.1748,5.1855,5.1898,5.1915,5.1685,5.1683,5.1682,5.168,0,0,5.1485,5.1528,5.1548,5.157,5.1605,5.1649,5.1714,5.1763,5.1793,5.1825,5.1879,5.1947,5.1916,5.194,5.1928,5.1973,5.2079,5.1932,5.1933,5.196,5.2198,5.2225,5.2246,5.206,5.2063,5.2066,5.2196,0,5.1613,5.1731,5.1724,5.1834,5.1888,5.1854,5.1911,5.1937,5.1942,5.1986,5.199,5.204,5.1993,5.2008,5.2052,5.2057,5.2127,5.2047,5.2109,5.2111,5.2105,5.2268,5.2297,5.2419,5.2212,5.2215,5.2217,0,5.1778,5.1819,5.1936,5.1964,5.1986,5.2038,5.2082,5.2125,5.2153,5.2153,5.2181,5.2161,5.2225,5.2165,5.2252,5.2198,5.2222,5.2229,5.2233,5.2239,5.2172,5.2279,5.2457,5.2476,5.2243,5.2241,5.2239,0,5.189,5.1974,5.2055,5.2074,5.2108,5.2146,5.2161,5.2186,5.2216,5.2252,5.2271,5.2314,5.2337,5.237,5.2361,5.2318,5.245,5.2389,5.2451,5.2452,5.2481,5.248,5.2667,5.2496,5.2495,5.2495,5.2495,0,5.2034,5.2106,5.2106,5.2156,5.2236,5.2225,5.2303,5.2313,5.2336,5.2386,5.2357,5.2403,5.2389,5.2434,5.2427,5.2501,5.2511,5.2512,5.2509,5.2515,5.2515,5.2531,5.2523,5.25,5.2499,5.2498,5.2497,0,5.2172,5.2175,5.2262,5.2288,5.2295,5.2353,5.2374,5.242,5.2422,5.2485,5.2499,5.2503,5.2554,5.2549,5.2605,5.2601,5.2692,5.2679,5.2684,5.2681,5.2745,5.2739,5.295,5.2977,5.2787,5.2789,5.279,0,5.2265,5.2321,5.2354,5.2387,5.2406,5.2458,5.2489,5.2479,5.2512,5.2549,5.259,5.2639,5.2679,5.2762,5.2768,5.2811,5.2799,5.287,5.2805,5.281,5.2801,5.2799,5.2804,5.2883,5.2885,5.2887,5.2888,0,5.2429,5.2428,5.2476,5.2524,5.2562,5.2599,5.2632,5.2659,5.2652,5.269,5.2745,5.2775,5.2835,5.2884,5.2925,5.2937,5.2912,5.2908,5.2925,5.2933,5.2934,5.2935,5.272,5.2904,5.2902,5.2901,5.29,5.29,5.2548,5.2597,5.2628,5.2682,5.2706,5.2738,5.2783,5.2792,5.2838,5.2888,5.2878,5.2939,5.2965,5.3018,5.3035,5.3081,5.3055,5.3079,5.3085,5.3092,5.31,5.2926,5.3088,5.3087,5.3087,5.3086,5.3086,0,5.2712,5.2731,5.278,5.2829,5.2871,5.2846,5.2881,5.2917,5.2972,5.3,5.304,5.3102,5.3149,5.3159,5.3204,5.3239,5.3228,5.3251,5.3249,5.3252,5.312,5.3101,5.3259,5.3259,5.3259,5.3259,5.3259,5.3259,5.2802,5.2883,5.2886,5.2978,5.2995,5.3057,5.308,5.3108,5.313,5.3202,5.3243,5.325,5.327,5.3316,5.3358,5.3359,5.3378,5.3406,5.3402,5.3279,5.3261,5.3245,5.3228,5.3409,5.341,5.3531,5.3532,5.3533]}]]